| time (UTC) | temp C | wind direction | speed KPH | gust KPH | rain 1hr cm | rain 24hr cm | rain mn cm | humidity % | barometer mb |
| 20260505124542 | 1 | 5 | 3.2 | 14.5 | 0.00 | 0.10 | 0.05 | 94 | 1006.4 |
| 20260505124041 | 1 | 323 | 1.6 | 17.7 | 0.00 | 0.10 | 0.05 | 94 | 1006.4 |
| 20260505123541 | 1 | 360 | 8.0 | 17.7 | 0.00 | 0.10 | 0.05 | 94 | 1006.3 |
| 20260505123048 | 2 | 355 | 3.2 | 16.1 | 0.00 | 0.10 | 0.05 | 93 | 1006.0 |
| 20260505122535 | 2 | 331 | 6.4 | 16.1 | 0.00 | 0.10 | 0.05 | 93 | 1006.0 |
| 20260505122034 | 2 | 348 | 0.0 | 14.5 | 0.00 | 0.10 | 0.05 | 93 | 1005.8 |
| 20260505121533 | 2 | 11 | 4.8 | 14.5 | 0.00 | 0.10 | 0.05 | 93 | 1005.6 |
| 20260505121033 | 3 | 348 | 1.6 | 8.0 | 0.00 | 0.10 | 0.05 | 92 | 1005.6 |
| 20260505120530 | 3 | 339 | 0.0 | 0.0 | 0.00 | 0.10 | 0.05 | 92 | 1005.6 |
| 20260505120039 | 3 | 304 | 0.0 | 0.0 | 0.00 | 0.10 | 0.05 | 91 | 1005.6 |
| 20260505115529 | 3 | 281 | 0.0 | 0.0 | 0.00 | 0.10 | 0.05 | 91 | 1005.6 |
| 20260505115028 | 3 | 268 | 0.0 | 9.7 | 0.00 | 0.10 | 0.05 | 92 | 1005.4 |
| 20260505114528 | 3 | 268 | 0.0 | 16.1 | 0.00 | 0.10 | 0.05 | 91 | 1005.4 |
| 20260505114028 | 3 | 220 | 6.4 | 16.1 | 0.00 | 0.10 | 0.05 | 92 | 1005.4 |
| 20260505113526 | 3 | 219 | 6.4 | 12.9 | 0.00 | 0.10 | 0.05 | 93 | 1005.3 |
| 20260505113026 | 3 | 223 | 4.8 | 12.9 | 0.00 | 0.10 | 0.05 | 93 | 1005.2 |
| 20260505112527 | 3 | 217 | 4.8 | 12.9 | 0.00 | 0.10 | 0.05 | 94 | 1005.2 |
| 20260505112027 | 3 | 198 | 8.0 | 12.9 | 0.00 | 0.10 | 0.05 | 94 | 1005.2 |
| 20260505111530 | 3 | 218 | 4.8 | 14.5 | 0.00 | 0.10 | 0.05 | 94 | 1005.0 |
| 20260505111025 | 3 | 163 | 8.0 | 16.1 | 0.00 | 0.10 | 0.05 | 95 | 1005.1 |
| 20260505110525 | 3 | 196 | 8.0 | 17.7 | 0.00 | 0.10 | 0.05 | 95 | 1005.2 |
| 20260505102018 | 3 | 196 | 1.6 | 12.9 | 0.03 | 0.10 | 0.05 | 95 | 1004.8 |
| 20260505101518 | 3 | 146 | 3.2 | 12.9 | 0.03 | 0.10 | 0.05 | 95 | 1004.6 |
| 20260505101018 | 3 | 198 | 3.2 | 8.0 | 0.03 | 0.10 | 0.05 | 95 | 1004.6 |
| 20260505100516 | 3 | 200 | 3.2 | 9.7 | 0.03 | 0.10 | 0.05 | 95 | 1004.6 |
| 20260505100027 | 3 | 202 | 4.8 | 9.7 | 0.03 | 0.10 | 0.05 | 95 | 1004.5 |
| 20260505095514 | 3 | 204 | 3.2 | 9.7 | 0.03 | 0.10 | 0.05 | 95 | 1004.4 |
| 20260505095016 | 3 | 204 | 3.2 | 9.7 | 0.03 | 0.10 | 0.05 | 95 | 1004.5 |
| 20260505094517 | 3 | 216 | 3.2 | 9.7 | 0.03 | 0.10 | 0.05 | 94 | 1004.5 |
| 20260505094013 | 3 | 215 | 3.2 | 9.7 | 0.03 | 0.10 | 0.05 | 94 | 1004.6 |
| 20260505093512 | 3 | 196 | 3.2 | 8.0 | 0.03 | 0.10 | 0.05 | 95 | 1004.6 |
| 20260505093019 | 3 | 194 | 3.2 | 6.4 | 0.03 | 0.10 | 0.05 | 95 | 1004.5 |
| 20260505092512 | 3 | 194 | 3.2 | 8.0 | 0.00 | 0.08 | 0.03 | 95 | 1004.3 |
| 20260505092011 | 3 | 197 | 1.6 | 8.0 | 0.00 | 0.08 | 0.03 | 95 | 1004.4 |
| 20260505091511 | 3 | 178 | 3.2 | 11.3 | 0.00 | 0.08 | 0.03 | 95 | 1004.5 |
| 20260505091010 | 3 | 169 | 3.2 | 8.0 | 0.00 | 0.08 | 0.03 | 95 | 1004.4 |
| 20260505090510 | 3 | 128 | 1.6 | 8.0 | 0.00 | 0.08 | 0.03 | 95 | 1004.4 |
| 20260505090009 | 3 | 125 | 1.6 | 6.4 | 0.00 | 0.08 | 0.03 | 95 | 1004.4 |
| 20260505085514 | 3 | 128 | 3.2 | 6.4 | 0.00 | 0.08 | 0.03 | 95 | 1004.4 |
| 20260505085008 | 3 | 58 | 1.6 | 4.8 | 0.00 | 0.08 | 0.03 | 94 | 1004.4 |
| 20260505084511 | 3 | 50 | 1.6 | 6.4 | 0.00 | 0.08 | 0.03 | 94 | 1004.7 |
| 20260505084006 | 3 | 50 | 1.6 | 6.4 | 0.00 | 0.08 | 0.03 | 94 | 1004.9 |
| 20260505083502 | 3 | 46 | 0.0 | 4.8 | 0.00 | 0.08 | 0.03 | 94 | 1004.9 |
| 20260505083002 | 3 | 46 | 0.0 | 3.2 | 0.00 | 0.08 | 0.03 | 94 | 1004.9 |
| 20260505082506 | 4 | 46 | 0.0 | 0.0 | 0.00 | 0.08 | 0.03 | 94 | 1005.0 |
| 20260505082001 | 4 | 46 | 0.0 | 0.0 | 0.00 | 0.08 | 0.03 | 94 | 1005.2 |
| 20260505081503 | 4 | 46 | 0.0 | 3.2 | 0.00 | 0.08 | 0.03 | 94 | 1005.4 |
| 20260505081101 | 4 | 46 | 0.0 | 6.4 | 0.00 | 0.08 | 0.03 | 94 | 1005.2 |
| 20260505080603 | 4 | 46 | 4.8 | 6.4 | 0.00 | 0.08 | 0.03 | 94 | 1005.0 |
| 20260505080107 | 4 | 46 | 1.6 | 4.8 | 0.00 | 0.08 | 0.03 | 94 | 1005.3 |
| 20260505075600 | 4 | 46 | 0.0 | 3.2 | 0.00 | 0.08 | 0.03 | 94 | 1005.3 |
| 20260505075058 | 4 | 46 | 0.0 | 3.2 | 0.00 | 0.08 | 0.03 | 94 | 1005.5 |
| 20260505074558 | 4 | 46 | 0.0 | 4.8 | 0.00 | 0.08 | 0.03 | 94 | 1005.4 |
| 20260505074104 | 4 | 46 | 0.0 | 3.2 | 0.00 | 0.08 | 0.03 | 94 | 1005.4 |
| 20260505073556 | 4 | 46 | 0.0 | 6.4 | 0.00 | 0.08 | 0.03 | 94 | 1005.5 |
| 20260505073101 | 4 | 46 | 0.0 | 6.4 | 0.00 | 0.08 | 0.03 | 94 | 1005.5 |
| 20260505073003 | 4 | 46 | 1.6 | 6.4 | 0.00 | 0.08 | 0.03 | 94 | 1005.4 |
| 20260505072558 | 4 | 46 | 0.0 | 4.8 | 0.00 | 0.08 | 0.03 | 94 | 1005.4 |
| 20260505072057 | 4 | 50 | 0.0 | 4.8 | 0.00 | 0.08 | 0.03 | 94 | 1005.6 |
| 20260505071613 | 4 | 50 | 0.0 | 4.8 | 0.00 | 0.08 | 0.03 | 94 | 1005.3 |
| 20260505071059 | 4 | 50 | 0.0 | 4.8 | 0.03 | 0.08 | 0.03 | 94 | 1005.4 |
| 20260505070555 | 4 | 50 | 1.6 | 4.8 | 0.03 | 0.08 | 0.03 | 94 | 1005.3 |
| 20260505070055 | 4 | 50 | 0.0 | 4.8 | 0.03 | 0.08 | 0.03 | 94 | 1005.2 |
| 20260505065606 | 4 | 50 | 0.0 | 4.8 | 0.03 | 0.08 | 0.03 | 93 | 1005.4 |
| 20260505065052 | 4 | 50 | 0.0 | 3.2 | 0.03 | 0.08 | 0.03 | 93 | 1005.6 |
| 20260505064558 | 4 | 50 | 0.0 | 4.8 | 0.03 | 0.08 | 0.03 | 93 | 1005.5 |
| 20260505064053 | 4 | 50 | 0.0 | 4.8 | 0.03 | 0.08 | 0.03 | 93 | 1005.5 |
| 20260505063552 | 4 | 50 | 0.0 | 0.0 | 0.03 | 0.08 | 0.03 | 93 | 1005.5 |
| 20260505063053 | 4 | 50 | 0.0 | 1.6 | 0.03 | 0.08 | 0.03 | 93 | 1005.5 |
| 20260505062550 | 4 | 50 | 0.0 | 1.6 | 0.03 | 0.08 | 0.03 | 93 | 1005.4 |
| 20260505062049 | 4 | 50 | 0.0 | 1.6 | 0.03 | 0.08 | 0.03 | 93 | 1005.2 |
| 20260505061556 | 4 | 50 | 0.0 | 1.6 | 0.00 | 0.05 | 0.00 | 93 | 1005.3 |
| 20260505061049 | 4 | 50 | 0.0 | 8.0 | 0.00 | 0.05 | 0.00 | 92 | 1005.4 |
| 20260505060548 | 4 | 50 | 6.4 | 8.0 | 0.00 | 0.05 | 0.00 | 92 | 1005.1 |
| 20260505060058 | 4 | 52 | 0.0 | 0.0 | 0.00 | 0.05 | 0.05 | 92 | 1005.6 |
| 20260505055548 | 4 | 52 | 0.0 | 6.4 | 0.00 | 0.05 | 0.05 | 92 | 1005.7 |
| 20260505055050 | 4 | 52 | 0.0 | 8.0 | 0.00 | 0.05 | 0.05 | 92 | 1005.5 |
| 20260505054546 | 4 | 53 | 0.0 | 9.7 | 0.00 | 0.05 | 0.05 | 91 | 1005.6 |
| 20260505054046 | 4 | 49 | 1.6 | 8.0 | 0.00 | 0.05 | 0.05 | 91 | 1005.4 |
| 20260505053540 | 4 | 53 | 4.8 | 8.0 | 0.00 | 0.05 | 0.05 | 91 | 1005.4 |
| 20260505053040 | 4 | 42 | 1.6 | 9.7 | 0.00 | 0.05 | 0.05 | 91 | 1005.4 |
| 20260505052540 | 4 | 23 | 1.6 | 9.7 | 0.00 | 0.05 | 0.05 | 91 | 1005.4 |
| 20260505052040 | 4 | 355 | 3.2 | 9.7 | 0.00 | 0.05 | 0.05 | 90 | 1005.4 |
| 20260505051540 | 4 | 5 | 3.2 | 9.7 | 0.00 | 0.05 | 0.05 | 91 | 1005.2 |
| 20260505051040 | 4 | 355 | 3.2 | 8.0 | 0.00 | 0.05 | 0.05 | 91 | 1005.2 |
| 20260505050539 | 4 | 342 | 1.6 | 4.8 | 0.00 | 0.05 | 0.05 | 91 | 1005.3 |
| 20260505041548 | 4 | 19 | 4.8 | 9.7 | 0.03 | 0.05 | 0.05 | 89 | 1004.9 |
| 20260505041035 | 5 | 20 | 4.8 | 8.0 | 0.03 | 0.05 | 0.05 | 89 | 1004.7 |
| 20260505040536 | 5 | 30 | 4.8 | 12.9 | 0.03 | 0.05 | 0.05 | 89 | 1004.8 |
| 20260505040034 | 5 | 30 | 3.2 | 14.5 | 0.03 | 0.05 | 0.05 | 89 | 1004.6 |
| 20260505035535 | 5 | 28 | 6.4 | 14.5 | 0.03 | 0.05 | 0.05 | 89 | 1004.4 |
| 20260505035037 | 5 | 21 | 4.8 | 14.5 | 0.03 | 0.05 | 0.05 | 89 | 1004.3 |
| 20260505034532 | 5 | 16 | 6.4 | 12.9 | 0.03 | 0.05 | 0.05 | 89 | 1004.3 |
| 20260505034032 | 5 | 5 | 4.8 | 14.5 | 0.03 | 0.05 | 0.05 | 89 | 1004.6 |
| 20260505033531 | 5 | 29 | 6.4 | 16.1 | 0.03 | 0.05 | 0.05 | 89 | 1004.6 |
| 20260505033033 | 5 | 34 | 4.8 | 12.9 | 0.00 | 0.03 | 0.03 | 89 | 1004.8 |
| 20260505032531 | 5 | 21 | 4.8 | 12.9 | 0.00 | 0.03 | 0.03 | 89 | 1004.7 |
| 20260505032032 | 5 | 28 | 4.8 | 9.7 | 0.00 | 0.03 | 0.03 | 88 | 1004.5 |
| 20260505031528 | 5 | 13 | 3.2 | 12.9 | 0.00 | 0.03 | 0.03 | 88 | 1004.4 |
| 20260505031028 | 5 | 13 | 6.4 | 19.3 | 0.00 | 0.03 | 0.03 | 87 | 1004.3 |
| 20260505030527 | 5 | 36 | 9.7 | 16.1 | 0.00 | 0.03 | 0.03 | 86 | 1004.2 |
| 20260505030026 | 5 | 24 | 4.8 | 12.9 | 0.00 | 0.03 | 0.03 | 85 | 1004.1 |
| 20260505025526 | 6 | 355 | 3.2 | 8.0 | 0.00 | 0.03 | 0.03 | 84 | 1004.3 |
| 20260505025022 | 6 | 9 | 3.2 | 6.4 | 0.03 | 0.03 | 0.03 | 82 | 1004.2 |
| 20260505024522 | 6 | 13 | 1.6 | 9.7 | 0.03 | 0.03 | 0.03 | 82 | 1004.3 |
| 20260505024021 | 6 | 22 | 1.6 | 8.0 | 0.03 | 0.03 | 0.03 | 81 | 1004.1 |
| 20260505023521 | 6 | 22 | 3.2 | 8.0 | 0.03 | 0.03 | 0.03 | 81 | 1004.1 |
| 20260505023021 | 6 | 30 | 1.6 | 3.2 | 0.03 | 0.03 | 0.03 | 80 | 1004.0 |
| 20260505022520 | 6 | 30 | 0.0 | 3.2 | 0.03 | 0.03 | 0.03 | 80 | 1004.0 |
| 20260505022019 | 6 | 30 | 0.0 | 8.0 | 0.03 | 0.03 | 0.03 | 79 | 1004.0 |
| 20260505021519 | 6 | 30 | 1.6 | 8.0 | 0.03 | 0.03 | 0.03 | 77 | 1004.0 |
| 20260505021018 | 6 | 30 | 4.8 | 14.5 | 0.03 | 0.03 | 0.03 | 77 | 1003.8 |
| 20260505020517 | 6 | 30 | 4.8 | 14.5 | 0.03 | 0.03 | 0.03 | 78 | 1004.0 |
| 20260505020023 | 6 | 24 | 3.2 | 16.1 | 0.03 | 0.03 | 0.03 | 77 | 1004.1 |
| 20260505015517 | 6 | 24 | 4.8 | 12.9 | 0.03 | 0.03 | 0.03 | 78 | 1003.8 |
| 20260505015016 | 6 | 11 | 3.2 | 9.7 | 0.00 | 0.00 | 0.00 | 78 | 1003.7 |
| 20260505014529 | 6 | 12 | 1.6 | 9.7 | 0.00 | 0.00 | 0.00 | 78 | 1003.6 |
| 20260505014013 | 6 | 44 | 4.8 | 16.1 | 0.00 | 0.00 | 0.00 | 75 | 1003.4 |
| 20260505013513 | 7 | 44 | 9.7 | 16.1 | 0.00 | 0.00 | 0.00 | 74 | 1003.5 |
| 20260505013010 | 7 | 40 | 6.4 | 16.1 | 0.00 | 0.00 | 0.00 | 73 | 1003.7 |
| 20260505012512 | 7 | 23 | 6.4 | 16.1 | 0.00 | 0.00 | 0.00 | 70 | 1003.8 |
| 20260505012008 | 8 | 342 | 6.4 | 17.7 | 0.00 | 0.00 | 0.00 | 67 | 1003.5 |
| 20260505011506 | 8 | 5 | 9.7 | 20.9 | 0.00 | 0.00 | 0.00 | 61 | 1003.4 |
| 20260505011004 | 9 | 334 | 11.3 | 20.9 | 0.00 | 0.00 | 0.00 | 57 | 1003.3 |
| 20260505010504 | 9 | 333 | 3.2 | 17.7 | 0.00 | 0.00 | 0.00 | 53 | 1003.2 |
| 20260505010004 | 9 | 309 | 6.4 | 16.1 | 0.00 | 0.00 | 0.00 | 54 | 1002.9 |
| 20260505005507 | 9 | 41 | 8.0 | 19.3 | 0.00 | 0.00 | 0.00 | 54 | 1002.7 |
| 20260505005004 | 9 | 355 | 9.7 | 19.3 | 0.00 | 0.00 | 0.00 | 54 | 1002.6 |
| 20260505004506 | 9 | 355 | 6.4 | 20.9 | 0.00 | 0.00 | 0.00 | 55 | 1002.6 |
| 20260505004003 | 10 | 338 | 11.3 | 20.9 | 0.00 | 0.00 | 0.00 | 55 | 1002.5 |
| 20260505003503 | 10 | 39 | 9.7 | 24.1 | 0.00 | 0.00 | 0.00 | 54 | 1002.3 |
| 20260505003001 | 10 | 32 | 9.7 | 25.7 | 0.00 | 0.00 | 0.00 | 53 | 1002.2 |
| 20260505002501 | 10 | 19 | 12.9 | 25.7 | 0.00 | 0.00 | 0.00 | 52 | 1002.2 |
| 20260505002001 | 10 | 57 | 9.7 | 22.5 | 0.00 | 0.00 | 0.00 | 50 | 1002.0 |
| 20260505001606 | 11 | 9 | 12.9 | 29.0 | 0.00 | 0.00 | 0.00 | 49 | 1001.9 |
| 20260505001503 | 11 | 11 | 9.7 | 29.0 | 0.00 | 0.00 | 0.00 | 49 | 1002.0 |
| 20260505001103 | 11 | 338 | 16.1 | 29.0 | 0.00 | 0.00 | 0.00 | 49 | 1002.1 |
| 20260505000600 | 11 | 28 | 17.7 | 29.0 | 0.00 | 0.00 | 0.00 | 48 | 1002.2 |
| 20260505000104 | 11 | 16 | 14.5 | 29.0 | 0.00 | 0.00 | 0.00 | 46 | 1002.1 |
| 20260504235558 | 11 | 58 | 14.5 | 40.2 | 0.00 | 0.00 | 0.00 | 45 | 1002.1 |
| 20260504235058 | 12 | 17 | 19.3 | 40.2 | 0.00 | 0.00 | 0.00 | 42 | 1001.9 |
| 20260504234558 | 12 | 35 | 14.5 | 30.6 | 0.00 | 0.00 | 0.00 | 40 | 1001.8 |
| 20260504234057 | 12 | 84 | 12.9 | 30.6 | 0.00 | 0.00 | 0.00 | 41 | 1001.7 |
| 20260504233557 | 12 | 48 | 6.4 | 25.7 | 0.00 | 0.00 | 0.00 | 43 | 1001.9 |
| 20260504233059 | 12 | 102 | 14.5 | 25.7 | 0.00 | 0.00 | 0.00 | 41 | 1002.0 |
| 20260504232559 | 12 | 16 | 8.0 | 19.3 | 0.00 | 0.00 | 0.00 | 43 | 1002.3 |
| 20260504232055 | 12 | 50 | 8.0 | 25.7 | 0.00 | 0.00 | 0.00 | 41 | 1002.1 |
| 20260504231555 | 13 | 32 | 12.9 | 25.7 | 0.00 | 0.00 | 0.00 | 40 | 1002.0 |
| 20260504231055 | 13 | 5 | 6.4 | 17.7 | 0.00 | 0.00 | 0.00 | 40 | 1001.9 |
| 20260504230557 | 13 | 67 | 3.2 | 17.7 | 0.00 | 0.00 | 0.00 | 39 | 1001.7 |
| 20260504230054 | 13 | 90 | 8.0 | 22.5 | 0.00 | 0.00 | 0.00 | 39 | 1001.6 |
| 20260504225554 | 13 | 24 | 9.7 | 29.0 | 0.00 | 0.00 | 0.00 | 39 | 1001.6 |
| 20260504225053 | 13 | 28 | 8.0 | 20.9 | 0.00 | 0.00 | 0.00 | 39 | 1001.4 |
| 20260504224555 | 13 | 28 | 3.2 | 22.5 | 0.00 | 0.00 | 0.00 | 35 | 1001.5 |
| 20260504224058 | 13 | 355 | 6.4 | 22.5 | 0.00 | 0.00 | 0.00 | 37 | 1001.3 |
| 20260504223556 | 13 | 329 | 4.8 | 27.4 | 0.00 | 0.00 | 0.00 | 37 | 1001.1 |
| 20260504223107 | 14 | 307 | 8.0 | 27.4 | 0.00 | 0.00 | 0.00 | 36 | 1001.2 |
| 20260504222553 | 14 | 302 | 8.0 | 17.7 | 0.00 | 0.00 | 0.00 | 34 | 1001.1 |
| 20260504222052 | 15 | 5 | 4.8 | 25.7 | 0.00 | 0.00 | 0.00 | 34 | 1001.1 |
| 20260504221553 | 15 | 334 | 9.7 | 25.7 | 0.00 | 0.00 | 0.00 | 34 | 1000.9 |
| 20260504221052 | 15 | 224 | 3.2 | 16.1 | 0.00 | 0.00 | 0.00 | 33 | 1000.9 |
| 20260504220552 | 15 | 301 | 4.8 | 16.1 | 0.00 | 0.00 | 0.00 | 30 | 1000.9 |
| 20260504220052 | 15 | 19 | 4.8 | 12.9 | 0.00 | 0.00 | 0.00 | 30 | 1000.8 |
| 20260504215555 | 15 | 344 | 4.8 | 19.3 | 0.00 | 0.00 | 0.00 | 30 | 1000.7 |
| 20260504215051 | 15 | 323 | 4.8 | 19.3 | 0.00 | 0.00 | 0.00 | 30 | 1000.7 |
| 20260504214552 | 15 | 337 | 6.4 | 22.5 | 0.00 | 0.00 | 0.00 | 30 | 1000.6 |
| 20260504214055 | 15 | 26 | 8.0 | 22.5 | 0.00 | 0.00 | 0.00 | 30 | 1000.7 |
| 20260504213549 | 16 | 24 | 12.9 | 27.4 | 0.00 | 0.00 | 0.00 | 29 | 1000.7 |
| 20260504213151 | 15 | 71 | 8.0 | 27.4 | 0.00 | 0.00 | 0.00 | 30 | 1000.7 |
| 20260504212552 | 16 | 5 | 14.5 | 30.6 | 0.00 | 0.00 | 0.00 | 29 | 1000.7 |
| 20260504212048 | 16 | 32 | 16.1 | 29.0 | 0.00 | 0.00 | 0.00 | 30 | 1000.8 |
| 20260504211631 | 16 | 33 | 11.3 | 24.1 | 0.00 | 0.00 | 0.00 | 28 | 1000.7 |
| 20260504211048 | 16 | 360 | 9.7 | 20.9 | 0.00 | 0.00 | 0.00 | 29 | 1000.9 |
| 20260504210548 | 16 | 9 | 4.8 | 20.9 | 0.00 | 0.00 | 0.00 | 29 | 1000.7 |
| 20260504210051 | 16 | 320 | 8.0 | 29.0 | 0.00 | 0.00 | 0.00 | 29 | 1000.9 |
| 20260504205547 | 15 | 360 | 12.9 | 29.0 | 0.00 | 0.00 | 0.00 | 30 | 1000.8 |
| 20260504205046 | 15 | 32 | 8.0 | 24.1 | 0.00 | 0.00 | 0.00 | 31 | 1001.0 |
| 20260504204548 | 15 | 355 | 11.3 | 29.0 | 0.00 | 0.00 | 0.00 | 31 | 1001.1 |
| 20260504204046 | 15 | 332 | 12.9 | 29.0 | 0.00 | 0.00 | 0.00 | 30 | 1001.2 |
| 20260504203545 | 15 | 15 | 11.3 | 29.0 | 0.00 | 0.00 | 0.00 | 30 | 1001.3 |
| 20260504203045 | 16 | 331 | 12.9 | 29.0 | 0.00 | 0.00 | 0.00 | 29 | 1001.3 |
| 20260504202545 | 17 | 24 | 11.3 | 30.6 | 0.00 | 0.00 | 0.00 | 29 | 1001.3 |
| 20260504202047 | 16 | 315 | 14.5 | 30.6 | 0.00 | 0.00 | 0.00 | 28 | 1001.1 |
| 20260504201544 | 16 | 15 | 16.1 | 33.8 | 0.00 | 0.00 | 0.00 | 29 | 1001.3 |
| 20260504201044 | 16 | 340 | 12.9 | 25.7 | 0.00 | 0.00 | 0.00 | 28 | 1001.4 |
| 20260504200544 | 17 | 349 | 6.4 | 25.7 | 0.00 | 0.00 | 0.00 | 27 | 1001.5 |
| 20260504200044 | 16 | 256 | 8.0 | 25.7 | 0.00 | 0.00 | 0.00 | 27 | 1001.3 |
| 20260504195543 | 16 | 226 | 6.4 | 25.7 | 0.00 | 0.00 | 0.00 | 26 | 1001.3 |
| 20260504195042 | 16 | 239 | 9.7 | 20.9 | 0.00 | 0.00 | 0.00 | 27 | 1001.4 |
| 20260504194549 | 16 | 242 | 14.5 | 22.5 | 0.00 | 0.00 | 0.00 | 26 | 1001.5 |
| 20260504194042 | 16 | 238 | 8.0 | 19.3 | 0.00 | 0.00 | 0.00 | 25 | 1001.5 |
| 20260504193541 | 16 | 246 | 11.3 | 19.3 | 0.00 | 0.00 | 0.00 | 24 | 1001.5 |
| 20260504193041 | 17 | 211 | 3.2 | 11.3 | 0.00 | 0.00 | 0.00 | 23 | 1001.6 |
| 20260504192539 | 17 | 248 | 3.2 | 11.3 | 0.00 | 0.00 | 0.00 | 22 | 1001.5 |
| 20260504192040 | 17 | 223 | 4.8 | 14.5 | 0.00 | 0.00 | 0.00 | 23 | 1001.5 |
| 20260504191556 | 16 | 231 | 9.7 | 14.5 | 0.00 | 0.00 | 0.00 | 23 | 1001.5 |
| 20260504191039 | 16 | 217 | 8.0 | 19.3 | 0.00 | 0.00 | 0.00 | 22 | 1001.6 |
| 20260504190539 | 17 | 195 | 6.4 | 19.3 | 0.00 | 0.00 | 0.00 | 21 | 1001.6 |
| 20260504190044 | 17 | 176 | 1.6 | 11.3 | 0.00 | 0.00 | 0.00 | 22 | 1001.5 |
| 20260504185539 | 17 | 234 | 0.0 | 8.0 | 0.00 | 0.00 | 0.00 | 25 | 1001.6 |
| 20260504185038 | 16 | 360 | 3.2 | 8.0 | 0.00 | 0.00 | 0.00 | 25 | 1001.8 |
| 20260504184546 | 16 | 283 | 1.6 | 16.1 | 0.00 | 0.00 | 0.00 | 25 | 1002.0 |
| 20260504184036 | 16 | 248 | 4.8 | 14.5 | 0.00 | 0.00 | 0.00 | 24 | 1002.0 |
| 20260504183531 | 16 | 39 | 6.4 | 14.5 | 0.00 | 0.00 | 0.00 | 22 | 1002.0 |
| 20260504183029 | 16 | 247 | 4.8 | 12.9 | 0.00 | 0.00 | 0.00 | 23 | 1002.3 |
| 20260504151004 | 12 | 213 | 12.9 | 30.6 | 0.00 | 0.00 | 0.00 | 37 | 1004.2 |
| 20260504150503 | 12 | 247 | 8.0 | 30.6 | 0.00 | 0.00 | 0.00 | 37 | 1004.3 |
| 20260504141053 | 11 | 300 | 6.4 | 17.7 | 0.00 | 0.00 | 0.00 | 40 | 1004.4 |
| 20260504140553 | 11 | 275 | 6.4 | 16.1 | 0.00 | 0.00 | 0.00 | 39 | 1004.3 |
| 20260504130546 | 10 | 237 | 9.7 | 22.5 | 0.00 | 0.00 | 0.00 | 38 | 1004.4 |